Showing default

NIGHTJAR, 60535

Orbit data source: Space-Track

NIGHTJAR, 60535 is a payload satellite owned by TASA (TW) in SSO that was launched on Fri, 16 Aug 2024 UTC via an FALCON 9 launch vehicle from the Air Force Western Test Range (AFWTR). Payload-class satellites include a variety of spacecraft equipped with specific instruments for various scientific and technological missions. These include communications satellites like Starlink; space stations such as the ISS; scientific satellites like the Hubble; Earth observation satellites from companies like Planet Labs, Umbra, and HawkEye 360; GPS; miniature CubeSats for education and research; and military/defense satellites.

Loading next visibility...
Identifier
60535, 2024-149BV
Orbit
SSO
Country
Flag of TWTW / TWN
Related business
Manufacturer
NANAV/RAPTEK
Mission
Operational Civil Communications
Bus & Motor
CUBESAT 3U, Unknown motor
Mass
5 kg wet, 5 kg dry
Launch date (UTC)
2024-08-16 (1 year ago)
Launch vehicle
FALCON 9
Launch site
Air Force Western Test Range (AFWTR)
Object type
Payload
Rocket body
Debris
Shape & HBR
Box, 0.1 m
Radar Cross Section
0.080 m², Medium (>0.1 m² and < 1m²)

Expand to show TLE details & history
Last TLE update: 4 hours ago

TLE from 4 hours ago
0 NIGHTJAR
1 60535U 24149BV  26035.18557559  .00003455  00000-0  29666-3 0  9999
2 60535  97.6974 113.7678 0001281 108.1255 252.0107 14.98110340122957
Epoch: 2026-02-04T04:27Z
TLE epoch observation values (Epoch: 2026-02-04T04:27:13.730Z)
Latitude
-0.00005°
Longitude
-87.39518°
Altitude
576.063 km
Speed
7.573 km/s
True Right ascension
07h 35m 04s
True Declination
0° 00' 00"
Sunlit
Object was in full shadow at epoch
Visualization orbit readout
Latitude
Unknown
Longitude
Unknown
Altitude
Unknown
Speed
Unknown
Apparent Right ascension
Unknown
Apparent Declination
Unknown
Sunlit
N/A
Visualization observer readout
Local Sidereal Time
10:43:50
Azimuth
Unknown
Elevation
Unknown
Doppler factor
Unknown
Orbital elements
Apogee altitude
570.633 km
Perigee altitude
568.853 km
Semi-major axis
6,947.88 km
Eccentricity
0.00013
Inclination
97.6974°
RAAN
113.7678°
Arg. of periapsis
108.1255°
True anomaly
251.99674°
Mean anomaly
252.0107°
Eccentric anomaly
252.00372°
Mean motion
3.7477 °/min
Orbital period
96.06 mins
BSTAR
0.00029666
Loading maneuver chart data...
Computing Atmospheric mass density...
Loading historical data...
Loading historical data...
Loading historical data...
Loading historical data...
Loading historical data...
Loading historical data...
Loading historical data...

Documentation

Showing up to 5 results
|